Temp
67 68 70 69 69 69 69 69 70 70 70 70 70 69 69 70 70 70 70 70 69 70 69 68 68 68 68 67 66 66 61 63
64 65 66 65 66 68 68 69 69 69 69 69 68 69 69 69 69 69 70 70 70 69 69 68 68 67 67 66 66 65 61 61
63 64 64 64 65 68 69 69 69 69 69 68 66 65 65 66 67 68 69 69 68 68 68 67 67 66 66 66 66 60 60 61
66 65 64 64 72 66 65 67 66 65 66 65 64 63 63 67 66 67 68 68 68 67 67 66 65 60 60 64 59 60 60 60
68 68 66 65 67 64 63 63 63 64 65 64 63 64 63 63 61 62 61 63 61 62 62 60 60 59 59 59 60 61 58 59
69 68 68 65 65 63 64 64 64 63 64 65 63 61 61 60 60 60 59 59 59 59 58 60 59 61 60 60 60 59 59 59
65 67 67 66 66 66 65 65 64 64 65 65 63 62 61 60 60 60 59 59 59 59 59 60 60 61 61 60 60 60 60 59
65 67 67 70 67 66 65 64 64 64 63 64 65 62 61 61 60 60 59 58 59 58 58 58 58 59 59 60 60 59 59 59
67 67 67 67 68 67 66 64 64 63 63 63 63 62 61 60 58 58 58 58 58 58 58 57 57 59 58 58 59 60 58 58
66 69 66 65 66 65 66 65 63 62 61 61 62 62 61 58 57 57 57 57 57 56 56 56 55 54 54 55 56 57 58 58
63 63 63 65 64 62 63 62 61 60 59 59 61 61 60 58 58 57 57 56 54 54 54 52 51 52 56 55 54 54 54 59
60 62 63 62 59 58 59 59 59 59 59 59 61 62 62 58 57 56 55 54 52 52 51 51 50 50 57 55 51 52 53 51
59 62 60 62 59 56 56 56 58 58 61 62 61 61 59 56 54 54 53 52 50 51 50 49 49 49 47 50 48 51 49 49
59 59 59 60 58 56 57 57 61 61 61 61 57 56 57 58 53 51 51 50 50 49 48 47 47 47 45 43 42 47 45 49
59 60 60 59 61 61 60 60 59 58 56 55 56 56 55 53 52 50 50 49 48 47 47 46 43 45 44 43 39 36 39 45
59 61 61 61 60 58 58 55 54 53 51 51 52 52 53 53 51 49 48 47 46 45 48 44 44 42 43 47 42 43 41 38
57 59 60 60 59 59 56 54 51 50 49 49 50 51 53 54 52 50 48 46 45 44 43 42 41 41 40 40 40 39 40 37
56 58 58 59 57 55 53 51 50 48 48 50 51 50 48 49 50 45 44 43 43 42 41 41 41 43 43 41 39 38 36 35
58 58 56 55 53 51 50 50 49 53 52 51 47 48 47 46 44 43 43 43 43 42 41 41 41 43 43 41 42 41 39 40
56 56 54 53 51 51 51 51 52 53 51 49 47 44 43 43 43 43 43 43 42 41 39 38 39 38 38 38 41 39 42 40
MSLP
1019.69 1019.74 1020.01 1020.04 1020.23 1020.23 1020.44 1020.47 1020.68 1020.72 1020.83 1021.03 1020.80 1020.89 1020.96 1020.77 1021.13 1021.01 1021.00 1021.37 1021.61 1021.55 1021.45 1021.44 1021.29 1021.10 1020.95 1020.69 1020.56 1020.44 1020.31 1020.17
1019.94 1020.08 1020.12 1020.15 1020.28 1020.37 1020.76 1020.73 1020.55 1021.03 1020.92 1021.15 1021.30 1021.01 1021.41 1021.49 1021.27 1021.50 1021.09 1021.30 1021.55 1021.61 1021.55 1021.54 1021.30 1021.18 1021.09 1020.77 1020.67 1020.58 1020.26 1020.06
1020.09 1020.18 1020.15 1020.34 1020.59 1020.66 1020.57 1020.50 1020.74 1020.48 1020.90 1020.95 1021.23 1021.34 1021.36 1021.44 1021.48 1021.59 1021.37 1021.24 1021.48 1021.43 1021.56 1021.65 1021.51 1021.31 1021.14 1020.80 1020.64 1020.78 1020.54 1020.23
1019.66 1019.92 1020.11 1020.24 1020.16 1020.79 1020.87 1020.59 1020.91 1020.90 1020.94 1020.99 1021.08 1021.38 1021.48 1021.49 1021.61 1021.52 1021.47 1021.30 1021.26 1021.32 1021.45 1021.53 1021.52 1021.58 1021.35 1020.96 1020.82 1020.75 1020.71 1020.41
1019.27 1019.32 1019.44 1019.93 1020.12 1020.32 1020.80 1021.12 1020.97 1021.07 1021.27 1021.19 1021.33 1021.33 1021.24 1021.36 1021.76 1021.66 1021.62 1021.41 1021.39 1021.36 1021.21 1021.21 1021.22 1021.27 1021.20 1021.07 1020.74 1020.58 1020.60 1020.39
1018.90 1018.92 1019.06 1019.44 1019.95 1020.13 1020.47 1020.78 1021.02 1021.18 1021.48 1021.45 1021.36 1021.38 1021.36 1021.56 1021.87 1021.74 1021.59 1021.42 1021.32 1021.20 1021.05 1020.86 1020.80 1020.74 1020.76 1020.77 1020.56 1020.38 1020.27 1020.19
1019.19 1019.19 1019.56 1019.36 1019.69 1020.01 1020.32 1020.46 1020.77 1021.05 1021.18 1021.21 1021.10 1021.23 1021.21 1021.49 1021.79 1021.73 1021.63 1021.56 1021.41 1021.26 1021.16 1020.90 1020.65 1020.42 1020.33 1020.37 1020.33 1020.08 1019.88 1019.76
1018.30 1018.39 1018.34 1018.65 1019.42 1019.83 1020.00 1020.33 1020.61 1020.64 1020.69 1020.91 1020.73 1020.89 1021.12 1021.41 1021.71 1021.78 1021.77 1021.65 1021.46 1021.37 1021.25 1021.02 1020.81 1020.69 1020.40 1020.15 1019.99 1019.97 1019.93 1019.81
1017.82 1018.32 1018.78 1018.26 1018.68 1019.38 1019.68 1020.29 1020.54 1020.58 1020.57 1021.03 1020.99 1021.01 1021.26 1021.50 1021.90 1021.87 1021.72 1021.42 1021.28 1021.16 1021.00 1020.90 1020.81 1020.56 1020.54 1020.17 1019.84 1019.58 1019.49 1019.47
1017.02 1017.66 1018.27 1018.65 1018.73 1019.39 1019.66 1020.29 1020.67 1020.53 1020.70 1021.10 1021.13 1021.35 1021.54 1021.76 1021.90 1021.79 1021.45 1021.34 1021.49 1021.34 1021.27 1021.07 1021.01 1020.90 1020.70 1020.25 1019.95 1019.66 1019.44 1019.11
1018.56 1018.86 1019.10 1019.01 1019.37 1019.77 1020.10 1020.92 1020.99 1021.05 1021.32 1021.56 1021.84 1021.85 1021.93 1021.95 1021.87 1021.71 1021.52 1021.44 1021.65 1021.65 1021.55 1021.56 1021.39 1020.97 1020.62 1020.21 1019.91 1019.62 1019.29 1019.07
1019.76 1019.61 1019.94 1019.97 1020.29 1020.75 1021.03 1021.51 1021.60 1021.84 1021.95 1022.09 1022.10 1022.22 1022.09 1022.16 1022.13 1021.95 1021.75 1021.90 1021.99 1021.77 1021.67 1021.58 1021.43 1021.20 1020.76 1020.27 1019.88 1019.55 1019.23 1019.46
1020.59 1020.68 1020.56 1020.98 1021.21 1021.45 1021.70 1022.29 1022.10 1022.48 1022.59 1022.36 1022.22 1022.17 1022.30 1022.34 1022.53 1022.38 1022.38 1022.47 1022.43 1022.24 1021.99 1021.76 1021.43 1021.01 1020.91 1020.47 1019.99 1019.49 1019.54 1019.56
1021.51 1021.29 1021.12 1021.44 1021.42 1021.93 1022.19 1022.45 1022.62 1022.00 1022.39 1022.68 1022.87 1022.71 1022.64 1022.44 1022.92 1023.03 1022.87 1022.79 1022.62 1022.46 1022.25 1022.09 1021.77 1021.35 1021.45 1021.30 1020.25 1019.65 1019.75 1019.72
1021.73 1021.57 1021.55 1021.62 1021.81 1021.96 1022.15 1022.29 1022.38 1022.56 1022.79 1023.10 1022.99 1022.79 1022.88 1023.08 1023.25 1023.14 1022.98 1022.89 1022.87 1022.67 1022.37 1022.35 1022.28 1021.90 1021.68 1021.63 1021.28 1020.89 1020.63 1019.81
1021.74 1021.66 1021.65 1021.70 1021.57 1021.94 1022.26 1022.72 1023.01 1023.20 1023.31 1023.47 1023.37 1023.20 1023.49 1023.57 1023.41 1023.29 1023.19 1023.11 1023.11 1022.97 1022.78 1022.79 1022.52 1022.47 1022.05 1021.69 1021.53 1021.33 1020.95 1020.12
1021.80 1021.72 1021.84 1021.83 1021.85 1021.95 1022.25 1022.70 1023.05 1023.33 1023.65 1023.68 1023.78 1023.88 1023.72 1023.60 1024.04 1023.71 1023.54 1023.48 1023.58 1023.60 1023.59 1023.55 1023.37 1023.16 1022.85 1022.49 1021.93 1021.62 1021.49 1021.28
1021.94 1021.97 1022.10 1022.07 1022.35 1022.64 1022.79 1023.14 1023.55 1023.78 1023.83 1023.95 1023.84 1023.29 1024.16 1023.76 1024.35 1024.32 1024.26 1023.98 1023.97 1024.01 1023.95 1023.84 1023.72 1023.43 1023.33 1022.89 1022.62 1022.21 1021.61 1021.28
1022.45 1022.77 1023.20 1023.22 1023.41 1023.54 1023.75 1023.91 1023.95 1023.88 1023.90 1024.15 1024.03 1024.80 1023.73 1023.63 1024.10 1024.25 1024.12 1023.90 1023.68 1023.53 1023.52 1023.57 1023.37 1023.17 1023.03 1022.92 1022.55 1022.33 1021.94 1021.26
1023.26 1023.63 1024.03 1024.06 1024.13 1024.21 1024.12 1024.02 1024.07 1024.09 1023.84 1023.99 1023.92 1024.02 1023.99 1023.59 1023.97 1023.77 1023.55 1023.46 1023.43 1023.34 1023.08 1022.93 1023.14 1023.08 1022.96 1022.64 1022.21 1022.00 1021.61 1021.25
Wind_Speed
6 8 10 12 12 12 11 11 11 11 10 9 9 8 7 7 7 6 4 2 1 2 4 6 7 7 8 9 9 10 6 4
7 6 6 7 7 11 10 10 10 9 9 8 7 7 6 6 5 5 4 2 3 4 4 3 5 7 9 9 9 9 7 5
6 6 6 6 6 7 10 10 10 10 7 8 5 3 4 4 4 7 4 4 7 6 6 5 5 7 9 9 6 2 5 4
9 8 7 7 6 5 5 5 3 3 4 5 4 4 4 4 5 10 7 7 9 8 8 7 6 3 4 5 2 2 3 4
10 11 10 8 5 4 2 1 1 2 4 4 4 2 3 3 3 3 3 5 3 4 4 3 4 4 4 4 4 3 2 3
10 10 9 7 5 4 4 4 3 2 3 4 4 3 3 2 1 2 3 3 4 4 3 4 5 5 6 6 6 4 3 3
6 7 3 5 6 4 4 4 3 5 4 4 4 3 3 2 1 2 2 3 2 3 4 5 6 6 5 5 6 6 6 4
9 8 8 7 6 6 5 5 5 4 5 5 6 4 4 3 1 3 3 3 3 4 4 5 5 5 6 6 6 5 6 6
12 8 5 7 9 6 5 3 4 4 3 1 2 3 4 4 3 3 3 4 6 5 5 4 5 5 5 6 5 6 5 6
13 8 7 5 5 4 4 4 3 2 2 2 5 6 6 5 3 3 3 4 4 4 4 5 4 4 4 5 5 4 6 6
5 2 3 4 7 2 5 5 3 4 5 5 6 6 5 5 3 4 4 3 3 2 2 2 3 5 5 4 5 4 5 4
5 3 4 6 6 4 5 5 5 4 5 5 7 5 5 5 4 5 4 3 4 3 3 2 2 2 7 5 5 5 4 5
8 6 5 3 4 4 5 2 2 4 3 4 5 6 6 6 5 6 5 5 4 4 3 4 4 4 4 6 3 6 3 4
6 7 8 5 5 3 2 1 2 3 4 6 5 6 7 7 6 5 5 4 6 5 4 3 2 2 2 3 6 6 2 4
6 7 7 6 6 3 2 1 1 2 1 3 4 7 6 6 5 4 5 3 4 4 4 4 3 3 3 2 4 3 3 3
5 6 7 5 6 4 3 2 0 1 2 2 4 7 7 6 6 6 5 3 5 5 5 4 3 3 3 2 1 3 3 8
6 5 3 3 3 5 4 2 2 2 3 5 6 6 8 9 8 9 10 7 7 8 7 7 4 4 3 3 2 2 2 3
4 6 6 4 5 5 5 5 5 4 2 3 2 3 3 9 8 6 4 5 5 4 5 6 5 6 5 4 4 4 3 3
5 8 10 9 10 9 8 6 4 3 3 2 4 3 3 5 4 4 2 2 2 2 2 3 3 5 6 5 5 7 6 5
12 11 9 7 7 5 3 2 1 2 2 5 3 4 3 4 3 2 2 2 2 2 1 2 4 4 6 5 4 4 5 2
Wind_Direction
127 123 128 126 134 131 135 141 151 147 149 146 140 148 162 158 174 168 174 134 21 332 360 2 355 347 339 333 349 350 347 325
132 136 145 143 141 145 154 161 151 158 160 148 142 156 185 203 202 220 195 221 275 288 313 338 341 330 328 326 345 352 337 340
154 149 149 142 151 167 163 169 169 163 163 151 169 206 216 222 226 251 232 239 262 269 279 298 302 317 314 334 2 345 333 329
166 155 162 165 164 168 179 180 180 161 175 181 191 210 225 221 244 251 255 245 263 279 289 295 298 293 295 320 327 312 319 312
174 170 168 174 160 163 163 177 189 177 212 221 194 213 220 206 253 279 287 280 280 300 294 271 260 239 247 260 272 282 265 271
170 177 176 168 149 162 176 157 189 222 229 190 137 139 111 141 187 299 315 319 300 282 282 283 264 248 235 241 246 249 247 246
98 111 137 149 162 165 162 180 172 182 178 168 136 139 117 90 36 346 339 322 294 304 304 318 322 311 287 254 256 248 246 244
148 149 155 138 139 155 149 159 159 164 172 183 171 152 140 128 40 5 4 354 337 316 310 311 314 326 313 305 278 269 267 276
151 164 102 148 153 154 144 165 150 167 167 356 76 103 104 105 70 27 351 356 359 356 356 352 351 345 333 316 310 306 269 253
167 154 132 137 123 109 121 171 142 137 118 125 85 81 85 75 59 19 343 25 10 11 4 356 344 343 314 311 315 310 302 300
84 78 84 96 71 11 71 38 68 77 70 70 67 72 70 58 17 326 3 32 36 8 338 37 322 327 320 312 318 319 324 335
34 55 15 53 63 48 61 50 52 59 77 72 53 38 22 5 351 357 25 32 11 5 7 322 268 310 327 324 311 315 320 360
34 48 16 74 48 56 51 63 75 62 62 73 36 18 14 35 31 24 16 31 6 349 317 335 330 339 343 320 287 277 7 11
47 54 68 73 79 68 65 60 64 135 70 38 30 52 40 54 38 22 27 11 358 351 358 321 291 347 283 275 320 313 34 4
103 89 80 73 90 95 56 64 21 24 41 73 46 57 55 60 47 35 16 8 352 335 334 347 307 318 27 248 325 292 321 318
102 116 123 132 129 112 108 106 31 13 56 62 42 45 39 28 32 24 18 3 15 357 4 0 1 314 322 333 255 215 302 310
163 146 130 156 119 128 141 135 108 100 72 52 27 26 47 56 36 42 36 34 28 26 11 360 355 334 330 332 310 314 284 280
70 66 31 33 81 46 72 87 84 68 49 35 27 121 58 51 39 42 43 46 41 30 26 19 3 5 343 336 326 300 275 256
53 41 36 40 57 54 56 74 97 89 56 25 87 352 53 88 77 57 48 47 49 37 21 345 312 308 304 300 294 279 278 293
60 65 62 58 65 56 37 29 178 169 168 141 159 167 167 130 160 129 54 358 301 291 258 265 306 303 296 288 284 274 292 296